Regional Weather Roundup
Issued by NWS Northern Indiana

Home | Current Version | Previous Version | Graphics & Text | Print | Product List | Glossary On
Versions: 1 2 3 4 5 6 7 8 9 10 11 12 13 14 15 16 17 18 19 20 21 22 23 24 25 26 27 28 29 30 31 32 33 34 35 36 37 38 39 40 41 42 43 44 45 46 47 48 49 50
000
ASUS43 KIWX 020810
RWRIWX

KIWX WEATHER ROUNDUP
NATIONAL WEATHER SERVICE NORTHERN INDIANA
400 AM EDT WED SEP 02 2015

NOTE: "FAIR" INDICATES FEW OR NO CLOUDS BELOW 12,000 FEET WITH NO
SIGNIFICANT WEATHER AND/OR OBSTRUCTIONS TO VISIBILITY.

* THESE STATIONS ARE NOT UNDER NWS QUALITY CONTROL. THEY ALSO MAY NOT
  REPORT WEATHER SUCH AS PRECIPITATION OR FOG.

INZ001>027-020900-
NORTHERN INDIANA

CITY           SKY/WX    TMP DP  RH WIND       PRES   REMARKS
GARY*          CLEAR     74  67  78 CALM      30.04S
VALPARAISO     CLEAR     70  68  93 S3        30.06S
MICHIGAN CITY* MOCLDY    72  66  83 S5        30.05S
LAPORTE*       PTCLDY   N/A N/A N/A CALM      30.06S HAZE
KNOX*          CLEAR     68  68 100 CALM      30.05S
SOUTH BEND     PTCLDY    70  68  93 SW3       30.06S
GOSHEN         PTCLDY    70  66  87 CALM      30.06F
MONTICELLO*    CLEAR     70  70  99 S3        30.05F
LOGANSPORT*    CLEAR     66  63  88 S5        30.08S
ROCHESTER*     CLEAR     73  70  88 CALM      30.07S
WARSAW*        CLEAR     68  66  94 CALM      30.07S
FORT WAYNE     PTCLDY    68  65  90 S6        30.08S
HUNTINGTON*    CLEAR     68  64  86 S3        30.08S
PERU/GRISSOM   CLEAR     69  66  90 S3        30.07S
MARION*        PTCLDY    66  60  80 CALM      30.09F

$$
INZ028>050-020900-
CENTRAL INDIANA

CITY           SKY/WX    TMP DP  RH WIND       PRES   REMARKS
LAFAYETTE      CLEAR     68  67  96 CALM      30.07S FOG
KOKOMO*        CLEAR     70  63  78 SW6       30.08F
MUNCIE*        MOCLDY    70  66  87 SW5       30.09F
INDIANAPOLIS   CLEAR     70  66  87 SW5       30.08S

$$
MIZ043>046-050>051-056>058-064>065-071>073-077>080-020900-
SOUTHWEST LOWER MICHIGAN

CITY           SKY/WX    TMP DP  RH WIND       PRES   REMARKS
BATTLE CREEK   PTCLDY    73  69  87 S3        30.06S
BENTON HARBOR  PTCLDY    72  68  87 CALM      30.03S
COLDWATER*     CLEAR     69  68  97 CALM      30.06F
HILLSDALE*     CLEAR     72  71  96 W3        30.07F
HOLLAND        CLEAR     76  70  82 SW10      30.02S
GRAND RAPIDS   MOCLDY    73  71  93 S6        30.02F
KALAMAZOO      CLEAR     71  67  87 S5        30.05S
STURGIS*       CLEAR     68  66  94 CALM      30.06S FOG
THREE RIVERS*  FAIR      68  68 100 S3        30.06S FOG

$$
OHZ001>008-015>018-024>025-020900-
NORTHWEST OHIO

CITY           SKY/WX    TMP DP  RH WIND       PRES   REMARKS
WAUSEON*       FAIR      68  68 100 CALM      30.07S
DEFIANCE       CLEAR     69  66  90 S3        30.07F
FINDLAY        CLEAR     67  64  90 S5        30.08S
TOLEDO EXPRESS CLEAR     70  66  87 SW5       30.06S
TOLEDO METCALF CLEAR     70  65  84 SW6       30.07S
LIMA           CLEAR     69  65  86 CALM      30.10S

$$
AND FOR LAKE MICHIGAN COASTAL AND OPEN LAKE BUOY OBSERVATIONS

STATION/POSITION TEMP    WIND        PRES    VSBY  WAVE
                 AIR SEA DIR/SP/G                  HT/PER
                 (F)     (DEG/KT/KT) (MB)    (MI)  (FT/S)
CALUMET HARBOR    75     200/  7/  9   N/A
MICHIGAN CITY     74     180/ 10/ 11   N/A
BURNS HARBOR      75     210/ 10/ 12 1017.6S
SAINT JOSEPH      76     170/  7/ 12 1017.3F
SOUTH LAKE BUOY   72 70  200/ 10/ 12 1015.4F         1/ 4
4 MI NW BRIDGMAN  74 73  230/  8/  8   N/A           1/ 3
MICHIGAN CITY     74 72  230/  6/  8   N/A           1/ 2

$$
&&


USA.gov is the U.S. government's official web portal to all federal, state and local government web resources and services.